Starlink 34498

operational
NORAD ID: 64421 Int'l Des: 2025-129 Owner: SPXS Country: US Constellation: starlink
LEOCIRCULAR

Starlink 34498について

説明を読み込み中...

リアルタイム位置

3D地球を読み込み中...

次回通過

高度履歴

Altitude vs Time

uPlot chart will show altitude changes over time

軌道要素

1 64421U 25129K 25343.16668980 -.00001081 00000-0 -82866-4 0 9993
2 64421 70.0018 302.7512 0003273 268.9929 195.4256 14.98302337 5800
Epoch: Dec 9, 2025 • Age: 5 hours

現在のステータス

高度 577.6 km
速度 7.57 km/s
衛星直下点 -17.18°S, 88.11°W
打ち上げ日 Jun 17, 2025
運用期間 0.4 years
タイプ internet

技術仕様

分類 Payload
質量 575.00 kg
乾燥質量 530.00 kg
総質量 575.00 kg
長さ 0.30 m
直径 4.10 m
スパン 29.00 m
形状 Box + pan
製造者 SPXS
バスタイプ Starlink V2MO
フェーズステータス In Orbit
所有者/国 SPXS/US

大規模コンステレーション

Loading constellations...